N313EA KSAN-KLAX

Flight info

Callsign N313EA
Flight time 0h 28m
Altitude 10000
Route CWARD2 SLI
Aircraft STAR/L-SDFGHRWY/S

Departure

Time 2026-04-23 02:34
Airport San Diego International Airport (KSAN)

Arrival

Time 2026-04-23 03:02
Airport Los Angeles International Airport (KLAX)
Time Latitude Longitude Altitude Speed Heading
2026-04-23 02:02 32.73343 -117.17873 29 ft 0 kts 185°
2026-04-23 02:23 32.73283 -117.17861 22 ft 10 kts 134°
2026-04-23 02:24 32.73257 -117.17767 21 ft 11 kts 106°
2026-04-23 02:24 32.73220 -117.17677 22 ft 11 kts 148°
2026-04-23 02:24 32.73166 -117.17601 20 ft 17 kts 113°
2026-04-23 02:24 32.73129 -117.17532 20 ft 7 kts 185°
2026-04-23 02:25 32.73122 -117.17539 20 ft 0 kts 254°
2026-04-23 02:33 32.73073 -117.17536 22 ft 13 kts 167°
2026-04-23 02:33 32.73019 -117.17579 22 ft 0 kts 285°
2026-04-23 02:33 32.73039 -117.17662 20 ft 34 kts 286°
2026-04-23 02:34 32.73153 -117.18127 19 ft 84 kts 286°
2026-04-23 02:34 32.73333 -117.18902 334 ft 113 kts 287°
2026-04-23 02:34 32.73570 -117.19908 881 ft 133 kts 286°
2026-04-23 02:34 32.73801 -117.21004 1490 ft 141 kts 286°
2026-04-23 02:35 32.74027 -117.22160 2143 ft 146 kts 285°
2026-04-23 02:35 32.74358 -117.23291 2792 ft 148 kts 306°
2026-04-23 02:35 32.75004 -117.24287 3388 ft 162 kts 309°
2026-04-23 02:35 32.75752 -117.25371 3928 ft 176 kts 309°
2026-04-23 02:36 32.76560 -117.26512 4568 ft 181 kts 309°
2026-04-23 02:36 32.77377 -117.27654 5201 ft 183 kts 309°
2026-04-23 02:36 32.78178 -117.28828 6027 ft 182 kts 305°
2026-04-23 02:36 32.78889 -117.30080 6892 ft 182 kts 303°
2026-04-23 02:37 32.79648 -117.31372 7461 ft 201 kts 304°
2026-04-23 02:37 32.80546 -117.32771 7738 ft 224 kts 307°
2026-04-23 02:37 32.81558 -117.34293 7873 ft 242 kts 306°
2026-04-23 02:37 32.82592 -117.35923 7936 ft 251 kts 306°
2026-04-23 02:38 32.83653 -117.37570 7965 ft 255 kts 307°
2026-04-23 02:38 32.84737 -117.39240 7985 ft 255 kts 306°
2026-04-23 02:38 32.85811 -117.40912 7986 ft 254 kts 306°
2026-04-23 02:38 32.86885 -117.42584 7989 ft 253 kts 306°
2026-04-23 02:39 32.87955 -117.44241 8000 ft 252 kts 306°
2026-04-23 02:39 32.89016 -117.45890 8008 ft 250 kts 306°
2026-04-23 02:39 32.90070 -117.47532 8004 ft 249 kts 306°
2026-04-23 02:39 32.91119 -117.49162 8009 ft 247 kts 306°
2026-04-23 02:40 32.92164 -117.50785 8010 ft 246 kts 306°
2026-04-23 02:40 32.93203 -117.52405 8011 ft 247 kts 306°
2026-04-23 02:40 32.94255 -117.54044 8011 ft 250 kts 306°
2026-04-23 02:40 32.95314 -117.55692 8011 ft 251 kts 306°
2026-04-23 02:41 32.96376 -117.57349 8011 ft 252 kts 306°
2026-04-23 02:41 32.97441 -117.59009 8011 ft 252 kts 306°
2026-04-23 02:41 32.98492 -117.60649 8011 ft 251 kts 306°
2026-04-23 02:41 32.99553 -117.62303 8011 ft 251 kts 306°
2026-04-23 02:42 33.00611 -117.63957 8021 ft 251 kts 306°
2026-04-23 02:42 33.01674 -117.65616 8012 ft 252 kts 306°
2026-04-23 02:42 33.02737 -117.67281 8010 ft 252 kts 306°
2026-04-23 02:42 33.03802 -117.68941 8009 ft 251 kts 306°
2026-04-23 02:43 33.04504 -117.70039 8006 ft 251 kts 306°
2026-04-23 02:43 33.05559 -117.71694 8011 ft 251 kts 306°
2026-04-23 02:43 33.06668 -117.73296 8011 ft 251 kts 313°
2026-04-23 02:43 33.08004 -117.74652 8008 ft 252 kts 320°
2026-04-23 02:44 33.09377 -117.75961 8007 ft 252 kts 317°
2026-04-23 02:44 33.10692 -117.77352 8007 ft 252 kts 317°
2026-04-23 02:44 33.12032 -117.78704 8007 ft 252 kts 318°
2026-04-23 02:44 33.13354 -117.80037 8008 ft 252 kts 317°
2026-04-23 02:45 33.14683 -117.81404 8009 ft 252 kts 317°
2026-04-23 02:45 33.16018 -117.82760 8006 ft 252 kts 317°
2026-04-23 02:45 33.17351 -117.84116 8008 ft 252 kts 317°
2026-04-23 02:45 33.18684 -117.85476 8008 ft 252 kts 318°
2026-04-23 02:46 33.20228 -117.86463 8014 ft 256 kts 341°
2026-04-23 02:46 33.21984 -117.86885 8012 ft 259 kts 347°
2026-04-23 02:46 33.23761 -117.87248 8012 ft 258 kts 345°
2026-04-23 02:46 33.25512 -117.87726 8005 ft 258 kts 344°
2026-04-23 02:47 33.27274 -117.88157 8004 ft 258 kts 345°
2026-04-23 02:47 33.29037 -117.88585 8004 ft 258 kts 345°
2026-04-23 02:47 33.30795 -117.89035 8006 ft 258 kts 345°
2026-04-23 02:47 33.32539 -117.89466 8005 ft 258 kts 345°
2026-04-23 02:48 33.34304 -117.89902 8005 ft 258 kts 345°
2026-04-23 02:48 33.36063 -117.90346 8004 ft 258 kts 345°
2026-04-23 02:48 33.37822 -117.90783 8004 ft 258 kts 345°
2026-04-23 02:48 33.39559 -117.91303 8004 ft 256 kts 339°
2026-04-23 02:49 33.41242 -117.91982 8006 ft 256 kts 339°
2026-04-23 02:49 33.42955 -117.92582 8012 ft 257 kts 341°
2026-04-23 02:49 33.44669 -117.93195 8010 ft 257 kts 339°
2026-04-23 02:49 33.46380 -117.93832 8008 ft 257 kts 340°
2026-04-23 02:50 33.48073 -117.94438 8008 ft 258 kts 340°
2026-04-23 02:50 33.49789 -117.95060 8007 ft 257 kts 340°
2026-04-23 02:50 33.51500 -117.95686 8005 ft 257 kts 340°
2026-04-23 02:50 33.53219 -117.96309 8005 ft 257 kts 340°
2026-04-23 02:51 33.54931 -117.96933 8006 ft 257 kts 340°
2026-04-23 02:51 33.56646 -117.97558 8006 ft 258 kts 340°
2026-04-23 02:51 33.58363 -117.98183 8007 ft 258 kts 340°
2026-04-23 02:51 33.60079 -117.98808 7995 ft 257 kts 340°
2026-04-23 02:52 33.61724 -117.99405 7431 ft 245 kts 340°
2026-04-23 02:52 33.63351 -118.00008 6654 ft 245 kts 341°
2026-04-23 02:52 33.64984 -118.00599 5833 ft 244 kts 341°
2026-04-23 02:52 33.66607 -118.01185 5075 ft 242 kts 341°
2026-04-23 02:53 33.68187 -118.01767 4363 ft 238 kts 341°
2026-04-23 02:53 33.69732 -118.02333 3960 ft 224 kts 341°
2026-04-23 02:53 33.71244 -118.02884 3771 ft 239 kts 341°
2026-04-23 02:53 33.72853 -118.03474 3678 ft 239 kts 341°
2026-04-23 02:54 33.74447 -118.03926 3632 ft 236 kts 348°
2026-04-23 02:54 33.76102 -118.04231 3574 ft 244 kts 351°
2026-04-23 02:54 33.77776 -118.04498 3574 ft 248 kts 351°
2026-04-23 02:54 33.79498 -118.04755 3566 ft 244 kts 351°
2026-04-23 02:55 33.81168 -118.04994 3562 ft 240 kts 352°
2026-04-23 02:55 33.82823 -118.05236 3562 ft 240 kts 351°
2026-04-23 02:55 33.84510 -118.05476 3563 ft 246 kts 352°
2026-04-23 02:55 33.86196 -118.05716 3590 ft 248 kts 351°
2026-04-23 02:56 33.87916 -118.05950 3589 ft 248 kts 351°
2026-04-23 02:56 33.89638 -118.06188 3590 ft 249 kts 351°
2026-04-23 02:56 33.91363 -118.06431 3585 ft 249 kts 351°
2026-04-23 02:56 33.93079 -118.06679 3587 ft 248 kts 352°
2026-04-23 02:57 33.94792 -118.06941 3588 ft 248 kts 351°
2026-04-23 02:57 33.96413 -118.07554 3584 ft 244 kts 327°
2026-04-23 02:57 33.97531 -118.09054 3565 ft 244 kts 292°
2026-04-23 02:57 33.97434 -118.11038 3663 ft 240 kts 250°
2026-04-23 02:58 33.96736 -118.12870 3693 ft 242 kts 245°
2026-04-23 02:58 33.96047 -118.14723 3596 ft 246 kts 250°
2026-04-23 02:58 33.95599 -118.16708 3501 ft 243 kts 261°
2026-04-23 02:58 33.95381 -118.18700 3379 ft 237 kts 265°
2026-04-23 02:59 33.95228 -118.20658 3203 ft 234 kts 266°
2026-04-23 02:59 33.95103 -118.22627 2873 ft 236 kts 266°
2026-04-23 02:59 33.95002 -118.24604 2602 ft 232 kts 267°
2026-04-23 02:59 33.94885 -118.26454 2317 ft 217 kts 266°
2026-04-23 03:00 33.94744 -118.28273 1900 ft 218 kts 264°
2026-04-23 03:00 33.94571 -118.30022 1550 ft 205 kts 263°
2026-04-23 03:00 33.94393 -118.31637 1357 ft 185 kts 263°
2026-04-23 03:00 33.94276 -118.33117 1144 ft 168 kts 264°
2026-04-23 03:01 33.94143 -118.34337 924 ft 126 kts 262°
2026-04-23 03:01 33.94040 -118.35301 707 ft 111 kts 263°
2026-04-23 03:01 33.93954 -118.36213 605 ft 110 kts 265°
2026-04-23 03:01 33.93847 -118.37178 364 ft 116 kts 262°
2026-04-23 03:02 33.93758 -118.38103 199 ft 108 kts 262°
2026-04-23 03:02 33.93670 -118.38935 124 ft 88 kts 262°
2026-04-23 03:02 33.93606 -118.39548 119 ft 60 kts 263°
2026-04-23 03:02 33.93563 -118.39950 121 ft 39 kts 260°
2026-04-23 03:03 33.93486 -118.40185 120 ft 24 kts 218°
2026-04-23 03:03 33.93366 -118.40221 120 ft 13 kts 176°
2026-04-23 03:03 33.93341 -118.40218 121 ft 0 kts 173°